When you browse on this site, cookies collect data to enhance your experience and personalize the content and advertising you see.
Visit our Privacy Policy to learn more. By continuing to use the site, you agree to this use of cookies and data.
  • In France
  • List of Countries
  • For 7 days
  • Water Temperature
  • Satellite Maps
  • Weather Map
  • Weather Widgets
  • user-avatar
    Login

    Hourly Weather Brisbane

    Today, 17 July, Wednesday

    Time Temperature Precipitation Wind Pressure Humidity
    00:00 +12°C° 0 mm 2 mps 762 mmHg 66%
    01:00 +12°C° 0 mm 2 mps 762 mmHg 69%
    02:00 +10°C° 0 mm 2 mps 762 mmHg 71%
    03:00 +10°C° 0 mm 2 mps 762 mmHg 74%
    04:00 +10°C° 0 mm 2 mps 761 mmHg 74%
    05:00 +9°C° 0 mm 2 mps 762 mmHg 75%
    06:00 +9°C° 0 mm 2 mps 762 mmHg 75%
    07:00 +9°C° 0 mm 2 mps 762 mmHg 76%
    08:00 +12°C° 0 mm 2 mps 762 mmHg 66%
    09:00 +15°C° 0 mm 2 mps 762 mmHg 57%
    10:00 +19°C° 0 mm 1 mps 762 mmHg 45%
    11:00 +21°C° 0 mm 1 mps 762 mmHg 43%
    12:00 +22°C° 0 mm 1 mps 761 mmHg 41%
    13:00 +24°C° 0 mm 1 mps 760 mmHg 39%
    14:00 +23°C° 0 mm 1 mps 760 mmHg 41%
    15:00 +22°C° 0 mm 1 mps 760 mmHg 43%
    16:00 +22°C° 0 mm 1 mps 760 mmHg 45%
    17:00 +19°C° 0 mm 2 mps 760 mmHg 51%
    18:00 +17°C° 0 mm 2 mps 761 mmHg 57%
    19:00 +15°C° 0 mm 2 mps 761 mmHg 63%
    20:00 +15°C° 0 mm 2 mps 761 mmHg 63%
    21:00 +14°C° 0 mm 2 mps 761 mmHg 64%
    22:00 +13°C° 0 mm 2 mps 761 mmHg 64%
    23:00 +12°C° 0 mm 3 mps 761 mmHg 67%

    Tomorrow, 18 July, Thursday

    Time Temperature Precipitation Wind Pressure Humidity
    00:00 +11°C° 0 mm 3 mps 761 mmHg 69%
    01:00 +11°C° 0 mm 3 mps 761 mmHg 72%
    02:00 +10°C° 0 mm 3 mps 761 mmHg 74%
    03:00 +10°C° 0 mm 3 mps 760 mmHg 75%
    04:00 +10°C° 0 mm 3 mps 760 mmHg 77%
    05:00 +10°C° 0 mm 3 mps 761 mmHg 76%
    06:00 +10°C° 0 mm 4 mps 761 mmHg 75%
    07:00 +8°C° 0 mm 4 mps 761 mmHg 74%
    08:00 +11°C° 0 mm 4 mps 761 mmHg 66%
    09:00 +13°C° 0 mm 4 mps 761 mmHg 58%
    10:00 +16°C° 0 mm 3 mps 761 mmHg 49%
    11:00 +18°C° 0 mm 3 mps 761 mmHg 43%
    12:00 +20°C° 0 mm 2 mps 760 mmHg 36%
    13:00 +21°C° 0 mm 2 mps 759 mmHg 29%
    14:00 +21°C° 0 mm 2 mps 759 mmHg 31%
    15:00 +21°C° 0 mm 2 mps 760 mmHg 32%
    16:00 +22°C° 0 mm 1 mps 760 mmHg 34%
    17:00 +19°C° 0 mm 2 mps 760 mmHg 43%
    18:00 +17°C° 0 mm 2 mps 761 mmHg 53%
    19:00 +15°C° 0 mm 2 mps 761 mmHg 62%
    20:00 +14°C° 0 mm 2 mps 762 mmHg 64%
    21:00 +13°C° 0 mm 1 mps 762 mmHg 67%
    22:00 +13°C° 0 mm 1 mps 763 mmHg 69%
    23:00 +12°C° 0 mm 1 mps 763 mmHg 70%

    Day after tomorrow, 19 July, Friday

    Time Temperature Precipitation Wind Pressure Humidity
    00:00 +12°C° 0 mm 2 mps 763 mmHg 71%
    01:00 +10°C° 0 mm 2 mps 763 mmHg 72%
    02:00 +10°C° 0 mm 2 mps 763 mmHg 73%
    03:00 +9°C° 0 mm 2 mps 763 mmHg 74%
    04:00 +9°C° 0 mm 2 mps 763 mmHg 75%
    05:00 +9°C° 0 mm 2 mps 763 mmHg 76%
    06:00 +9°C° 0 mm 2 mps 764 mmHg 76%
    07:00 +9°C° 0 mm 2 mps 764 mmHg 77%
    08:00 +12°C° 0 mm 2 mps 764 mmHg 68%
    09:00 +15°C° 0 mm 2 mps 764 mmHg 59%
    10:00 +17°C° 0 mm 2 mps 764 mmHg 51%
    11:00 +20°C° 0 mm 1 mps 763 mmHg 45%
    12:00 +21°C° 0 mm 1 mps 763 mmHg 40%
    13:00 +21°C° 0 mm 0 mps 762 mmHg 35%
    14:00 +22°C° 0 mm 1 mps 762 mmHg 37%
    15:00 +22°C° 0 mm 1 mps 762 mmHg 39%
    16:00 +21°C° 0 mm 1 mps 762 mmHg 41%
    17:00 +19°C° 0 mm 1 mps 763 mmHg 49%
    18:00 +18°C° 0 mm 1 mps 763 mmHg 57%
    19:00 +15°C° 0 mm 2 mps 764 mmHg 66%
    20:00 +14°C° 0 mm 1 mps 764 mmHg 69%
    21:00 +14°C° 0 mm 1 mps 765 mmHg 73%
    22:00 +13°C° 0 mm 1 mps 765 mmHg 76%
    23:00 +13°C° 0 mm 1 mps 765 mmHg 77%

    20 July, Saturday

    Time Temperature Precipitation Wind Pressure Humidity
    00:00 +12°C° 0 mm 1 mps 765 mmHg 78%
    01:00 +12°C° 0 mm 1 mps 765 mmHg 79%
    02:00 +12°C° 0 mm 1 mps 765 mmHg 79%
    03:00 +11°C° 0 mm 1 mps 765 mmHg 79%
    04:00 +10°C° 0 mm 2 mps 765 mmHg 79%
    05:00 +10°C° 0 mm 2 mps 765 mmHg 79%
    06:00 +10°C° 0 mm 2 mps 765 mmHg 78%
    07:00 +9°C° 0 mm 2 mps 766 mmHg 78%
    08:00 +13°C° 0 mm 1 mps 766 mmHg 69%
    09:00 +16°C° 0 mm 1 mps 766 mmHg 60%
    10:00 +19°C° 0 mm 1 mps 766 mmHg 50%
    11:00 +20°C° 0 mm 1 mps 765 mmHg 48%
    12:00 +21°C° 0 mm 1 mps 765 mmHg 45%
    13:00 +21°C° 0 mm 2 mps 764 mmHg 43%
    14:00 +21°C° 0 mm 2 mps 764 mmHg 45%
    15:00 +20°C° 0 mm 2 mps 763 mmHg 48%
    16:00 +20°C° 0 mm 2 mps 763 mmHg 50%
    17:00 +18°C° 0 mm 2 mps 764 mmHg 56%
    18:00 +18°C° 0 mm 1 mps 764 mmHg 61%
    19:00 +15°C° 0 mm 1 mps 765 mmHg 67%
    20:00 +15°C° 0 mm 1 mps 765 mmHg 69%
    21:00 +14°C° 0 mm 1 mps 765 mmHg 71%
    22:00 +14°C° 0 mm 1 mps 765 mmHg 73%
    23:00 +13°C° 0 mm 1 mps 765 mmHg 75%

    21 July, Sunday

    Time Temperature Precipitation Wind Pressure Humidity
    00:00 +13°C° 0 mm 1 mps 765 mmHg 77%
    01:00 +12°C° 0 mm 1 mps 764 mmHg 79%
    02:00 +12°C° 0 mm 1 mps 764 mmHg 80%
    03:00 +12°C° 0 mm 1 mps 764 mmHg 81%
    04:00 +11°C° 0 mm 1 mps 764 mmHg 82%
    05:00 +11°C° 0 mm 1 mps 764 mmHg 83%
    06:00 +11°C° 0 mm 1 mps 765 mmHg 83%
    07:00 +11°C° 0 mm 1 mps 765 mmHg 84%
    08:00 +14°C° 0 mm 1 mps 765 mmHg 74%
    09:00 +16°C° 0 mm 1 mps 765 mmHg 64%
    10:00 +20°C° 0 mm 1 mps 765 mmHg 54%
    11:00 +21°C° 0 mm 1 mps 764 mmHg 50%
    12:00 +22°C° 0 mm 1 mps 763 mmHg 45%
    13:00 +23°C° 0 mm 1 mps 762 mmHg 40%
    14:00 +23°C° 0 mm 2 mps 762 mmHg 43%
    15:00 +21°C° 0 mm 2 mps 761 mmHg 46%
    16:00 +20°C° 0 mm 2 mps 761 mmHg 49%
    17:00 +19°C° 0 mm 2 mps 762 mmHg 57%
    18:00 +17°C° 0 mm 2 mps 762 mmHg 64%
    19:00 +16°C° 0 mm 2 mps 763 mmHg 71%
    20:00 +15°C° 0 mm 2 mps 763 mmHg 74%
    21:00 +15°C° 0 mm 2 mps 763 mmHg 77%
    22:00 +14°C° 0 mm 1 mps 763 mmHg 79%
    23:00 +14°C° 0 mm 1 mps 763 mmHg 80%

    22 July, Monday

    Time Temperature Precipitation Wind Pressure Humidity
    00:00 +14°C° 0 mm 1 mps 763 mmHg 81%
    01:00 +13°C° 0 mm 1 mps 763 mmHg 82%
    02:00 +13°C° 0 mm 1 mps 763 mmHg 82%
    03:00 +13°C° 0 mm 1 mps 763 mmHg 83%
    04:00 +13°C° 0 mm 1 mps 763 mmHg 84%
    05:00 +13°C° 0 mm 1 mps 763 mmHg 83%
    06:00 +13°C° 0 mm 1 mps 763 mmHg 82%
    07:00 +13°C° 0 mm 1 mps 764 mmHg 81%
    08:00 +15°C° 0 mm 1 mps 764 mmHg 76%
    09:00 +16°C° 0 mm 1 mps 764 mmHg 71%
    10:00 +19°C° 0 mm 1 mps 764 mmHg 66%
    11:00 +19°C° 0 mm 1 mps 763 mmHg 65%
    12:00 +20°C° 0 mm 1 mps 763 mmHg 64%
    13:00 +20°C° 0 mm 1 mps 762 mmHg 63%
    14:00 +20°C° 0.1 mm 1 mps 762 mmHg 64%
    15:00 +21°C° 0.1 mm 1 mps 762 mmHg 65%
    16:00 +21°C° 0.1 mm 1 mps 762 mmHg 66%
    17:00 +20°C° 0 mm 1 mps 762 mmHg 70%
    18:00 +19°C° 0 mm 1 mps 763 mmHg 74%
    19:00 +18°C° 0 mm 1 mps 763 mmHg 78%
    20:00 +18°C° 0.1 mm 1 mps 763 mmHg 79%
    21:00 +18°C° 0.1 mm 1 mps 763 mmHg 81%
    22:00 +16°C° 0.1 mm 1 mps 763 mmHg 82%
    23:00 +16°C° 0 mm 1 mps 763 mmHg 83%
    Show more